Time,TemperatureF,DewpointF,PressureIn,WindDirection,WindDirectionDegrees,WindSpeedMPH,WindSpeedGustMPH,Humidity,HourlyPrecipIn,Conditions,Clouds,dailyrainin,SolarRadiationWatts/m^2,SoftwareType,DateUTC
2013-01-30 00:10:00,35.2,35.0,30.18,ENE,75,0.0,0.0,97,0.00,,,0.01,0,weatherlink.com 1.10,2013-01-30 05:10:00,
2013-01-30 00:25:00,35.4,35.0,30.17,ENE,75,0.0,2.0,97,0.00,,,0.01,0,weatherlink.com 1.10,2013-01-30 05:25:00,
2013-01-30 00:40:00,35.5,35.0,30.16,SE,128,1.0,2.0,97,0.00,,,0.01,0,weatherlink.com 1.10,2013-01-30 05:40:00,
2013-01-30 00:55:00,35.5,35.0,30.16,SE,128,0.0,2.0,97,0.00,,,0.01,0,weatherlink.com 1.10,2013-01-30 05:55:00,
2013-01-30 01:10:00,35.6,35.0,30.14,East,98,0.0,3.0,97,0.00,,,0.01,0,weatherlink.com 1.10,2013-01-30 06:10:00,
2013-01-30 01:25:00,36.0,35.0,30.14,East,98,0.0,2.0,97,0.00,,,0.01,0,weatherlink.com 1.10,2013-01-30 06:25:00,
2013-01-30 01:40:00,36.1,35.0,30.13,East,98,0.0,1.0,97,0.00,,,0.01,0,weatherlink.com 1.10,2013-01-30 06:40:00,
2013-01-30 01:55:00,36.1,35.0,30.13,East,98,0.0,1.0,97,0.00,,,0.01,0,weatherlink.com 1.10,2013-01-30 06:55:00,
2013-01-30 02:10:00,36.3,36.0,30.12,East,98,0.0,1.0,97,0.00,,,0.01,0,weatherlink.com 1.10,2013-01-30 07:10:00,
2013-01-30 02:26:00,36.5,36.0,30.11,East,98,0.0,1.0,98,0.00,,,0.01,0,weatherlink.com 1.10,2013-01-30 07:26:00,
2013-01-30 02:41:00,36.7,36.0,30.11,East,98,0.0,1.0,98,0.00,,,0.01,0,weatherlink.com 1.10,2013-01-30 07:41:00,
2013-01-30 02:55:00,37.0,36.0,30.10,East,98,0.0,1.0,97,0.00,,,0.01,0,weatherlink.com 1.10,2013-01-30 07:55:00,
2013-01-30 03:11:00,37.3,37.0,30.09,NE,39,0.0,1.0,98,0.00,,,0.01,0,weatherlink.com 1.10,2013-01-30 08:11:00,
2013-01-30 03:25:00,37.3,37.0,30.08,ENE,67,2.0,2.0,98,0.00,,,0.01,0,weatherlink.com 1.10,2013-01-30 08:25:00,
2013-01-30 03:40:00,37.7,37.0,30.07,ESE,115,0.0,2.0,98,0.00,,,0.01,0,weatherlink.com 1.10,2013-01-30 08:40:00,
2013-01-30 03:55:00,38.7,38.0,30.07,East,79,1.0,5.0,98,0.00,,,0.01,0,weatherlink.com 1.10,2013-01-30 08:55:00,
2013-01-30 04:11:00,38.8,38.0,30.07,SE,140,0.0,2.0,98,0.00,,,0.01,0,weatherlink.com 1.10,2013-01-30 09:11:00,
2013-01-30 04:25:00,39.3,39.0,30.06,ESE,117,0.0,2.0,98,0.00,,,0.01,0,weatherlink.com 1.10,2013-01-30 09:25:00,
2013-01-30 04:40:00,39.5,39.0,30.05,East,101,0.0,1.0,98,0.00,,,0.01,0,weatherlink.com 1.10,2013-01-30 09:40:00,
2013-01-30 04:56:00,39.6,39.0,30.04,East,80,2.0,3.0,98,0.00,,,0.01,0,weatherlink.com 1.10,2013-01-30 09:56:00,
2013-01-30 05:11:00,39.7,39.0,30.03,ENE,67,0.0,3.0,98,0.00,,,0.01,0,weatherlink.com 1.10,2013-01-30 10:11:00,
2013-01-30 05:26:00,40.7,40.0,30.02,ENE,74,1.0,5.0,98,0.00,,,0.01,0,weatherlink.com 1.10,2013-01-30 10:26:00,
2013-01-30 05:41:00,42.2,42.0,30.02,SE,137,0.0,3.0,98,0.00,,,0.01,0,weatherlink.com 1.10,2013-01-30 10:41:00,
2013-01-30 05:56:00,43.4,43.0,30.02,East,96,0.0,3.0,98,0.00,,,0.01,0,weatherlink.com 1.10,2013-01-30 10:56:00,
2013-01-30 06:11:00,43.8,43.0,30.03,ESE,102,1.0,2.0,98,0.00,,,0.01,0,weatherlink.com 1.10,2013-01-30 11:11:00,
2013-01-30 06:26:00,44.4,44.0,30.02,East,90,2.0,3.0,99,0.00,,,0.01,0,weatherlink.com 1.10,2013-01-30 11:26:00,
2013-01-30 06:41:00,44.6,44.0,30.02,ENE,76,2.0,5.0,98,0.00,,,0.01,0,weatherlink.com 1.10,2013-01-30 11:41:00,
2013-01-30 06:56:00,45.5,45.0,30.01,East,81,1.0,3.0,99,0.00,,,0.01,0,weatherlink.com 1.10,2013-01-30 11:56:00,
2013-01-30 07:11:00,45.8,45.0,30.01,SE,130,1.0,5.0,98,0.00,,,0.01,0,weatherlink.com 1.10,2013-01-30 12:11:00,
2013-01-30 07:26:00,47.3,47.0,29.99,ENE,68,1.0,5.0,99,0.00,,,0.01,0,weatherlink.com 1.10,2013-01-30 12:26:00,
2013-01-30 07:41:00,47.8,48.0,29.98,East,94,1.0,5.0,99,0.00,,,0.01,5,weatherlink.com 1.10,2013-01-30 12:41:00,
2013-01-30 07:56:00,48.1,48.0,29.98,SE,137,2.0,4.0,99,0.00,,,0.01,7,weatherlink.com 1.10,2013-01-30 12:56:00,
2013-01-30 08:11:00,48.9,49.0,29.98,SE,130,3.0,5.0,99,0.00,,,0.01,11,weatherlink.com 1.10,2013-01-30 13:11:00,
2013-01-30 08:26:00,49.4,49.0,29.97,ESE,109,4.0,5.0,99,0.00,,,0.01,14,weatherlink.com 1.10,2013-01-30 13:26:00,
2013-01-30 08:41:00,49.3,49.0,29.96,SE,130,0.0,4.0,99,0.00,,,0.01,19,weatherlink.com 1.10,2013-01-30 13:41:00,
2013-01-30 08:56:00,49.4,49.0,29.95,SW,217,0.0,4.0,99,0.00,,,0.01,19,weatherlink.com 1.10,2013-01-30 13:56:00,
2013-01-30 09:11:00,49.4,49.0,29.95,SW,221,0.0,5.0,99,0.00,,,0.01,21,weatherlink.com 1.10,2013-01-30 14:11:00,
2013-01-30 09:26:00,49.3,49.0,29.94,SSE,148,2.0,3.0,99,0.00,,,0.01,14,weatherlink.com 1.10,2013-01-30 14:26:00,
2013-01-30 09:44:00,49.3,49.0,29.94,SSE,153,2.0,3.0,99,0.00,,,0.01,23,weatherlink.com 1.10,2013-01-30 14:44:00,
2013-01-30 09:57:00,50.2,50.0,29.93,SSE,163,3.0,4.0,99,0.00,,,0.01,30,weatherlink.com 1.10,2013-01-30 14:57:00,
2013-01-30 10:11:00,51.0,51.0,29.93,SE,134,0.0,3.0,99,0.00,,,0.01,49,weatherlink.com 1.10,2013-01-30 15:11:00,
2013-01-30 10:27:00,52.0,52.0,29.91,South,177,3.0,7.0,99,0.00,,,0.01,42,weatherlink.com 1.10,2013-01-30 15:27:00,
2013-01-30 10:42:00,52.6,52.0,29.91,SSE,153,1.0,7.0,99,0.00,,,0.01,56,weatherlink.com 1.10,2013-01-30 15:42:00,
2013-01-30 10:56:00,53.1,53.0,29.90,SSE,159,2.0,7.0,99,0.00,,,0.01,39,weatherlink.com 1.10,2013-01-30 15:56:00,
2013-01-30 11:11:00,53.3,53.0,29.88,WSW,250,4.0,7.0,99,0.00,,,0.01,62,weatherlink.com 1.10,2013-01-30 16:11:00,
2013-01-30 11:26:00,53.6,53.0,29.87,West,273,1.0,8.0,99,0.00,,,0.01,62,weatherlink.com 1.10,2013-01-30 16:26:00,
2013-01-30 11:42:00,53.7,54.0,29.86,West,276,9.0,13.0,99,0.00,,,0.01,63,weatherlink.com 1.10,2013-01-30 16:42:00,
2013-01-30 11:57:00,53.9,54.0,29.84,South,178,4.0,7.0,99,0.00,,,0.01,95,weatherlink.com 1.10,2013-01-30 16:57:00,
2013-01-30 12:12:00,54.2,54.0,29.82,SSE,161,2.0,10.0,99,0.00,,,0.01,81,weatherlink.com 1.10,2013-01-30 17:12:00,
2013-01-30 12:27:00,54.6,54.0,29.82,NNW,340,1.0,9.0,98,0.00,,,0.01,65,weatherlink.com 1.10,2013-01-30 17:27:00,
2013-01-30 12:42:00,54.6,54.0,29.80,South,180,3.0,11.0,97,0.00,,,0.01,65,weatherlink.com 1.10,2013-01-30 17:42:00,
2013-01-30 12:57:00,54.8,54.0,29.80,WSW,244,0.0,10.0,96,0.00,,,0.00,56,weatherlink.com 1.10,2013-01-30 17:57:00,
2013-01-30 13:12:00,54.9,54.0,29.79,SSE,165,2.0,10.0,96,0.00,,,0.00,58,weatherlink.com 1.10,2013-01-30 18:12:00,
2013-01-30 13:27:00,55.2,54.0,29.79,South,170,3.0,12.0,96,0.00,,,0.00,28,weatherlink.com 1.10,2013-01-30 18:27:00,
2013-01-30 13:42:00,55.2,54.0,29.79,SSW,201,6.0,13.0,97,0.00,,,0.00,21,weatherlink.com 1.10,2013-01-30 18:42:00,
2013-01-30 13:57:00,55.0,54.0,29.79,SW,232,7.0,17.0,97,0.00,,,0.00,19,weatherlink.com 1.10,2013-01-30 18:57:00,
2013-01-30 14:12:00,55.0,54.0,29.78,West,277,9.0,13.0,97,0.00,,,0.00,21,weatherlink.com 1.10,2013-01-30 19:12:00,
2013-01-30 14:27:00,55.0,54.0,29.78,SSW,209,2.0,17.0,97,0.00,,,0.00,18,weatherlink.com 1.10,2013-01-30 19:27:00,
2013-01-30 14:42:00,54.7,54.0,29.77,WNW,299,4.0,11.0,97,0.00,,,0.00,19,weatherlink.com 1.10,2013-01-30 19:42:00,
2013-01-30 14:57:00,54.4,54.0,29.76,SW,222,10.0,13.0,97,0.00,,,0.00,14,weatherlink.com 1.10,2013-01-30 19:57:00,
2013-01-30 15:12:00,53.9,53.0,29.75,SW,225,5.0,12.0,97,0.00,,,0.00,12,weatherlink.com 1.10,2013-01-30 20:12:00,
2013-01-30 15:27:00,53.8,53.0,29.74,SSE,158,5.0,10.0,98,0.00,,,0.00,18,weatherlink.com 1.10,2013-01-30 20:27:00,
2013-01-30 15:42:00,53.7,53.0,29.74,WSW,256,1.0,8.0,98,0.00,,,0.00,16,weatherlink.com 1.10,2013-01-30 20:42:00,
2013-01-30 15:57:00,53.4,53.0,29.74,NW,321,2.0,10.0,98,0.00,,,0.00,7,weatherlink.com 1.10,2013-01-30 20:57:00,
2013-01-30 16:12:00,53.4,53.0,29.74,WSW,246,3.0,9.0,98,0.00,,,0.00,5,weatherlink.com 1.10,2013-01-30 21:12:00,
2013-01-30 16:28:00,53.6,53.0,29.74,NNE,19,5.0,13.0,98,0.00,,,0.00,0,weatherlink.com 1.10,2013-01-30 21:28:00,
2013-01-30 16:42:00,53.8,53.0,29.75,WNW,300,10.0,13.0,98,0.00,,,0.00,0,weatherlink.com 1.10,2013-01-30 21:42:00,
2013-01-30 16:58:00,53.8,53.0,29.75,WSW,240,2.0,8.0,98,0.00,,,0.00,0,weatherlink.com 1.10,2013-01-30 21:58:00,
2013-01-30 17:12:00,53.8,53.0,29.74,WSW,238,3.0,9.0,98,0.00,,,0.00,0,weatherlink.com 1.10,2013-01-30 22:12:00,
2013-01-30 17:28:00,53.9,53.0,29.73,WSW,250,3.0,16.0,98,0.00,,,0.00,0,weatherlink.com 1.10,2013-01-30 22:28:00,
2013-01-30 17:42:00,54.4,54.0,29.72,SW,230,9.0,17.0,99,0.00,,,0.00,0,weatherlink.com 1.10,2013-01-30 22:42:00,
2013-01-30 17:57:00,55.0,55.0,29.72,WNW,301,5.0,15.0,99,0.00,,,0.00,0,weatherlink.com 1.10,2013-01-30 22:57:00,
2013-01-30 18:12:00,55.1,55.0,29.70,NNW,338,3.0,12.0,99,0.00,,,0.00,0,weatherlink.com 1.10,2013-01-30 23:12:00,
2013-01-30 18:27:00,55.1,55.0,29.70,SSE,148,3.0,15.0,99,0.00,,,0.00,0,weatherlink.com 1.10,2013-01-30 23:27:00,
2013-01-30 18:42:00,54.8,54.0,29.70,SSW,195,6.0,10.0,98,0.00,,,0.00,0,weatherlink.com 1.10,2013-01-30 23:42:00,
2013-01-30 18:57:00,54.8,54.0,29.69,SSW,206,4.0,13.0,98,0.00,,,0.00,0,weatherlink.com 1.10,2013-01-30 23:57:00,
2013-01-30 19:13:00,55.0,55.0,29.68,East,88,2.0,14.0,98,0.00,,,0.00,0,weatherlink.com 1.10,2013-01-31 00:13:00,
2013-01-30 19:28:00,55.4,55.0,29.68,WNW,290,12.0,16.0,98,0.00,,,0.00,0,weatherlink.com 1.10,2013-01-31 00:28:00,
2013-01-30 19:43:00,55.5,55.0,29.67,South,180,10.0,14.0,98,0.00,,,0.00,0,weatherlink.com 1.10,2013-01-31 00:43:00,
2013-01-30 19:58:00,55.4,55.0,29.67,WSW,243,2.0,17.0,98,0.00,,,0.00,0,weatherlink.com 1.10,2013-01-31 00:58:00,
2013-01-30 20:13:00,55.4,55.0,29.68,South,180,3.0,18.0,98,0.00,,,0.00,0,weatherlink.com 1.10,2013-01-31 01:13:00,
2013-01-30 20:28:00,55.1,55.0,29.67,SW,227,6.0,15.0,98,0.00,,,0.00,0,weatherlink.com 1.10,2013-01-31 01:28:00,
2013-01-30 20:43:00,54.4,54.0,29.67,South,184,3.0,14.0,97,0.00,,,0.00,0,weatherlink.com 1.10,2013-01-31 01:43:00,
2013-01-30 20:58:00,54.2,54.0,29.66,SW,220,2.0,19.0,98,0.00,,,0.00,0,weatherlink.com 1.10,2013-01-31 01:58:00,
2013-01-30 21:13:00,54.2,54.0,29.64,West,267,6.0,15.0,98,0.00,,,0.00,0,weatherlink.com 1.10,2013-01-31 02:13:00,
2013-01-30 21:28:00,54.3,54.0,29.64,WSW,250,7.0,11.0,98,0.00,,,0.00,0,weatherlink.com 1.10,2013-01-31 02:28:00,
2013-01-30 21:43:00,54.5,54.0,29.63,South,179,5.0,11.0,98,0.00,,,0.00,0,weatherlink.com 1.10,2013-01-31 02:43:00,
2013-01-30 21:58:00,54.5,54.0,29.62,South,171,3.0,21.0,98,0.00,,,0.00,0,weatherlink.com 1.10,2013-01-31 02:58:00,
2013-01-30 22:13:00,54.4,54.0,29.61,South,173,7.0,13.0,98,0.00,,,0.00,0,weatherlink.com 1.10,2013-01-31 03:13:00,
2013-01-30 22:28:00,54.5,54.0,29.60,South,187,4.0,10.0,98,0.00,,,0.00,0,weatherlink.com 1.10,2013-01-31 03:28:00,
2013-01-30 22:43:00,54.8,54.0,29.59,SSW,206,4.0,16.0,98,0.00,,,0.00,0,weatherlink.com 1.10,2013-01-31 03:43:00,
2013-01-30 22:58:00,55.5,55.0,29.58,SSE,158,8.0,16.0,97,0.00,,,0.00,0,weatherlink.com 1.10,2013-01-31 03:58:00,
2013-01-30 23:13:00,56.4,55.0,29.57,ESE,106,3.0,17.0,96,0.00,,,0.00,0,weatherlink.com 1.10,2013-01-31 04:13:00,
2013-01-30 23:28:00,57.0,56.0,29.55,West,270,8.0,16.0,95,0.00,,,0.00,0,weatherlink.com 1.10,2013-01-31 04:28:00,
2013-01-30 23:43:00,57.0,55.0,29.54,SSE,157,6.0,18.0,94,0.00,,,0.00,0,weatherlink.com 1.10,2013-01-31 04:43:00,
2013-01-30 23:58:00,56.3,55.0,29.53,SSW,200,6.0,11.0,95,0.00,,,0.00,0,weatherlink.com 1.10,2013-01-31 04:58:00,